SCP
0 0 0 0 0 0 0 0 0 0 0 0 0 0 0 0 0 0 0 0 0 0 0 0 0 0 0 0 0 0 0 0 0 0 0 0 0 0 0 0 0 0 0 0
0 0 0 0 0 0 0 0 0 0 0 0 0 0 0 0 0 0 0 0 0 0 0 0 0 0 0 0 0 0 0 0 0 0 0 0 0 0 0 0 0 0 0 0
0 0 0 0 0 0 0 0 0 0 0 0 0 0 0 0 0 0 0 0 0 0 0 0 0 0 0 0 0 0 0 0 0 0 0 0 0 0 0 0 0 0 0 0
0 0 0 0 0 0 0 0 0 0 0 0 0 0 0 0 0 0 0 0 0 0 0 0 0 0 0 0 0 0 0 0 0 0 0 0 0 0 0 0 0 0 0 0
0 0 0 0 0 0 0 0 0 0 0 0 0 0 0 0 0 0 0 0 0 0 0 0 0 0 0 0 0 0 0 0 0 0 0 0 0 0 0 0 0 0 0 0
0 0 0 0 0 0 0 0 0 0 0 0 0 0 0 0 0 0 0 0 0 0 0 0 0 0 0 0 0 0 0 0 0 0 0 0 0 0 0 0 0 0 0 0
0 0 0 0 0 0 0 0 0 0 0 0 0 0 0 0 0 0 0 0 0 0 0 0 0 0 0 0 0 0 0 0 0 0 0 0 0 0 0 0 0 0 0 0
0 0 0 0 0 0 0 0 0 0 0 0 0 0 0 0 0 0 0 0 0 0 0 0 0 0 0 0 0 0 0 0 0 0 0 0 0 0 0 0 0 0 0 0
0 0 0 0 0 0 0 0 0 0 0 0 0 0 0 0 0 0 0 0 0 0 0 0 0 0 0 0 0 0 0 0 0 0 0 0 0 0 0 0 0 0 0 0
0 0 0 0 0 0 0 0 0 0 0 0 0 0 0 0 0 0 0 0 0 0 0 0 0 0 0 0 0 0 0 0 0 0 0 0 0 0 0 0 0 0 0 0
0 0 0 0 0 0 0 0 0 0 0 0 0 0 0 0 0 0 0 0 0 0 0 0 0 0 0 0 0 0 0 0 0 0 0 0 0 0 0 0 0 0 0 0
0 0 0 0 0 0 0 0 0 0 0 0 0 0 0 0 0 0 0 0 0 0 0 0 0 0 0 0 0 0 0 0 0 0 0 0 0 0 0 0 0 0 0 0
0 0 0 0 0 0 0 0 0 0 0 0 0 0 0 0 0 0 0 0 0 0 0 0 0 0 0 0 0 0 0 0 0 0 0 0 0 0 0 0 0 0 0 0
0 0 0 0 0 0 0 0 0 0 0 0 0 0 0 0 0 0 0 0 0 0 0 0 0 0 0 0 0 0 0 0 0 0 0 0 0 0 0 0 0 0 0 0
0 0 0 0 0 0 0 0 0 0 0 0 0 0 0 0 0 0 0 0 0 0 0 0 0 0 0 0 0 0 0 0 0 0 0 0 0 0 0 0 0 0 0 0
0 0 0 0 0 0 0 0 0 0 0 0 0 0 0 0 0 0 0 0 0 0 0 0 0 0 0 0 0 0 0 0 0 0 0 0 0 0 0 0 0 0 0 0
0 0 0 0 0 0 0 0 0 0 0 0 0 0 0 0 0 0 0 0 0 0 0 0 0 0 0 0 0 0 0 0 0 0 0 0 0 0 0 0 0 0 0 0
0 0 0 0 0 0 0 0 0 0 0 0 0 0 0 0 0 0 0 0 0 0 0 0 0 0 0 0 0 0 0 0 0 0 0 0 0 0 0 0 0 0 0 0
0 0 0 0 0 0 0 0 0 0 0 0 0 0 0 0 0 0 0 0 0 0 0 0 0 0 0 0 0 0 0 0 0 0 0 0 0 0 0 0 0 0 0 0
0 0 0 0 0 0 0 0 0 0 0 0 0 0 0 0 0 0 0 0 0 0 0 0 0 0 0 0 0 0 0 0 0 0 0 0 0 0 0 0 0 0 0 0
0 0 0 0 0 0 0 0 0 0 0 0 0 0 0 0 0 0 0 0 0 0 0 0 0 0 0 0 0 0 0 0 0 0 0 0 0 0 0 0 0 0 0 0
0 0 0 0 0 0 0 0 0 0 0 0 0 0 0 0 0 0 0 0 0 0 0 0 0 0 0 0 0 0 0 0 0 0 0 0 0 0 0 0 0 0 0 0
0 0 0 0 0 0 0 0 0 0 0 0 0 0 0 0 0 0 0 0 0 0 0 0 0 0 0 0 0 0 0 0 0 0 0 0 0 0 0 0 0 0 0 0
0 0 0 0 0 0 0 0 0 0 0 0 0 0 0 0 0 0 0 0 0 0 0 0 0 0 0 0 0 0 0 0 0 0 0 0 0 0 0 0 0 0 0 0
0 0 0 0 0 0 0 0 0 0 0 0 0 0 0 0 0 0 0 0 0 0 0 0 0 0 0 0 0 0 0 0 0 0 0 0 0 0 0 0 0 0 0 0
0 0 0 0 0 0 0 0 0 0 0 0 0 0 0 0 0 0 0 0 0 0 0 0 0 0 0 0 0 0 0 0 0 0 0 0 0 0 0 0 0 0 0 0
0 0 0 0 0 0 0 0 0 0 0 0 0 0 0 0 0 0 0 0 0 0 0 0 0 0 0 0 0 0 0 0 0 0 0 0 0 0 0 0 0 0 0 0
Wind_Speed
4 5 3 4 7 8 7 6 5 4 4 3 1 2 3 3 4 4 3 4 4 4 4 4 4 3 3 2 2 2 1 1 1 1 1 1 2 1 1 1 2 2 2 2
4 4 4 6 6 8 9 8 8 5 5 1 2 3 3 3 3 4 3 3 3 3 4 4 4 4 3 3 2 2 2 2 2 1 1 1 1 1 1 2 2 2 2 3
3 2 3 6 6 7 6 5 5 6 4 2 3 3 2 3 4 3 3 3 3 3 3 4 4 3 3 3 3 2 2 2 2 2 2 2 2 2 2 2 3 3 3 3
1 1 5 3 1 1 2 1 1 2 2 2 3 3 3 3 4 3 3 3 3 3 3 3 3 3 3 3 3 2 2 2 2 2 2 2 2 2 2 2 2 3 3 3
2 3 4 1 1 1 1 1 1 2 2 3 4 4 4 5 5 4 3 3 2 2 2 3 3 3 3 3 3 3 3 3 3 2 2 2 2 3 3 2 3 3 3 3
2 3 3 0 2 2 1 1 2 2 2 2 2 1 1 3 4 4 4 3 3 3 3 3 4 4 3 3 4 3 3 3 3 2 2 2 2 3 3 2 2 3 3 3
4 3 1 1 3 2 2 2 2 3 3 2 1 2 2 3 3 3 3 3 3 3 3 3 3 3 3 3 3 3 3 3 3 3 2 2 2 2 2 2 2 3 3 3
2 3 3 2 2 2 1 2 3 4 3 3 3 4 3 3 2 2 2 3 3 2 2 3 3 3 3 3 3 4 4 4 4 3 2 2 2 2 2 2 2 3 3 3
1 1 1 3 3 2 2 3 3 3 3 3 2 2 2 2 2 2 2 2 2 2 2 2 3 3 3 4 4 4 4 4 4 4 3 2 2 2 2 2 2 2 2 3
1 1 2 4 4 4 4 3 3 2 2 2 2 2 2 2 2 2 2 2 2 2 2 2 2 2 2 3 4 4 4 4 4 4 4 3 2 2 2 2 2 2 3 3
0 1 1 3 4 5 5 5 4 4 3 2 2 2 2 1 2 2 2 2 2 2 2 2 2 2 3 3 3 4 3 4 4 3 3 3 3 2 3 2 2 3 3 3
1 2 2 2 4 5 4 4 4 4 4 3 2 2 2 1 1 2 2 2 2 3 3 3 3 3 3 3 3 3 3 3 3 3 3 2 2 3 5 4 6 6 6 5
2 4 2 3 4 5 4 4 4 4 3 3 3 3 2 2 2 2 2 2 3 3 3 3 3 3 3 3 3 3 3 3 3 3 3 2 2 3 3 5 6 6 6 6
5 4 3 3 3 4 4 4 4 3 3 3 2 2 2 2 3 3 3 3 3 3 3 3 3 3 4 4 3 4 3 4 4 3 2 2 2 3 3 3 4 4 5 6
5 3 2 2 3 3 3 3 3 3 3 3 3 2 2 3 3 3 4 4 4 4 3 3 4 4 4 3 4 4 3 3 3 2 2 2 2 2 2 3 3 3 4 4
5 3 2 3 3 3 4 4 3 3 3 3 3 3 3 3 3 4 4 3 3 4 4 4 4 5 4 3 3 3 3 4 4 3 2 2 2 2 2 2 3 3 3 3
4 3 4 4 4 4 4 3 3 3 3 3 3 3 3 3 4 4 4 3 3 4 4 4 5 5 4 3 3 3 2 2 5 3 2 2 2 2 2 2 2 2 3 3
3 3 3 3 3 4 4 4 3 3 3 3 3 3 3 3 4 5 5 4 4 4 4 4 4 4 4 4 3 2 1 2 2 2 2 2 2 2 2 2 2 2 2 3
4 3 3 4 3 3 3 3 4 4 3 3 3 3 3 3 4 4 4 4 4 5 5 5 8 6 4 4 4 1 1 1 2 2 2 3 3 2 2 2 2 2 2 2
4 4 4 4 3 3 3 3 3 3 3 3 3 3 4 4 4 4 4 3 3 3 4 6 5 3 3 3 4 2 1 1 1 2 2 2 2 2 1 2 2 2 2 2
4 4 4 4 4 4 3 3 3 3 3 3 2 3 4 4 4 4 3 4 4 4 5 6 4 3 3 3 3 2 1 2 2 2 2 2 2 1 2 2 2 2 2 2
4 4 4 4 4 4 4 3 3 3 3 3 3 3 4 4 4 4 3 3 4 6 4 3 2 4 4 4 2 2 2 2 2 1 1 1 1 1 1 2 2 2 2 2
3 3 4 4 4 4 4 4 4 3 3 3 3 4 4 4 3 3 4 3 3 5 4 3 4 5 5 3 2 2 2 2 2 2 2 1 1 1 1 2 2 2 2 2
3 4 4 4 3 3 4 4 4 3 3 3 3 3 3 3 3 3 3 5 6 6 3 4 6 6 5 2 2 2 2 2 2 2 2 2 2 2 1 2 2 2 2 2
3 3 3 3 3 3 3 4 4 3 3 3 3 3 3 2 2 3 3 4 5 5 3 4 6 6 4 2 2 2 2 2 2 1 1 2 2 2 2 2 2 2 2 2
3 3 3 2 2 3 3 3 3 3 3 3 3 3 3 2 3 3 2 3 4 5 3 2 3 4 2 2 2 2 2 2 2 2 2 2 2 2 2 2 2 2 2 2
3 2 2 2 2 3 3 3 3 3 3 3 4 4 3 3 3 3 3 3 3 3 2 2 2 2 2 2 2 2 2 2 2 2 2 2 2 2 2 2 2 2 2 2
Wind_Direction
273 286 258 223 213 210 214 219 222 237 231 233 167 129 109 100 93 86 77 60 49 37 25 26 32 34 34 25 18 14 14 359 339 332 335 330 306 293 297 296 288 283 280 277
266 256 263 263 233 221 226 230 236 250 266 217 118 102 103 101 104 95 76 57 45 32 21 21 21 17 16 9 2 1 354 337 341 345 340 324 317 326 325 312 306 299 288 283
251 240 268 257 237 220 219 222 212 227 227 147 112 98 84 88 91 87 76 62 44 24 18 16 12 11 3 348 347 355 351 347 347 352 351 340 334 343 329 316 312 307 302 297
246 199 230 234 35 182 199 239 206 150 139 126 105 88 61 69 86 71 62 52 39 25 12 9 9 8 3 357 2 12 4 354 352 0 348 339 340 327 313 307 303 305 307 303
210 221 249 250 3 16 169 285 309 158 127 110 105 82 56 54 63 59 54 53 37 20 11 13 14 6 6 6 14 16 4 351 343 339 325 321 318 309 308 312 314 314 312 316
225 228 234 49 357 351 84 301 10 95 122 123 103 112 131 68 62 52 39 37 32 20 17 17 10 9 9 4 12 3 346 335 329 325 316 306 298 298 301 305 307 311 314 314
231 235 261 335 324 27 138 229 10 54 83 80 86 107 113 82 64 54 35 27 26 25 23 8 3 10 4 4 3 347 340 332 328 324 315 310 307 304 305 311 315 313 310 314
211 219 244 352 32 74 72 22 33 47 61 70 71 86 89 81 69 54 35 25 21 22 17 8 10 13 5 0 348 346 342 332 327 325 319 322 318 315 316 315 315 314 322 326
161 178 19 39 57 37 34 35 30 38 63 73 69 83 79 69 52 36 29 21 15 15 13 8 10 16 360 341 341 346 340 332 332 335 333 325 316 315 321 321 316 317 323 320
66 49 42 32 26 21 30 39 40 53 62 62 70 78 68 56 33 24 13 11 7 10 3 351 1 9 348 334 338 340 334 331 334 335 335 337 334 332 329 329 323 315 311 310
293 325 21 28 22 25 33 32 38 46 44 40 56 65 53 34 15 12 1 355 359 353 345 339 348 350 343 339 339 334 328 325 328 330 330 333 339 344 330 325 305 306 303 301
285 335 335 359 10 18 30 29 25 32 31 26 34 47 29 7 356 2 354 349 343 342 339 335 338 333 333 331 328 326 322 324 323 322 322 324 332 341 349 333 332 326 317 306
351 352 15 25 22 19 24 18 19 23 24 14 19 26 17 352 349 351 340 333 329 327 322 320 321 322 325 324 323 319 310 310 309 309 309 314 317 316 320 334 335 326 321 319
16 12 16 15 11 19 21 14 15 14 18 21 18 11 8 353 343 340 330 325 320 315 313 312 316 317 321 322 320 312 305 304 301 295 297 299 301 304 307 311 318 324 326 328
358 4 359 2 10 14 10 11 11 7 13 14 14 6 1 344 331 325 321 320 320 317 315 317 313 310 316 317 312 304 301 298 298 301 300 296 294 296 297 301 303 310 322 329
336 358 22 15 4 3 6 3 358 353 358 356 359 354 341 324 315 313 312 314 315 314 314 313 307 306 311 309 305 300 295 299 305 304 304 304 301 299 297 298 304 310 315 319
353 356 357 351 348 347 347 343 339 336 339 341 338 335 329 325 321 319 320 320 313 308 309 305 303 309 312 305 295 292 295 301 306 304 297 299 300 299 297 298 303 309 314 331
350 332 331 329 326 329 334 343 345 341 337 331 332 335 331 326 318 317 320 323 324 323 320 313 312 319 318 313 297 284 294 298 298 298 300 304 307 302 298 299 310 316 324 336
353 349 348 343 338 326 324 334 338 337 337 337 334 329 322 318 314 314 320 326 325 320 321 322 323 326 321 319 320 309 304 300 304 307 309 310 316 318 323 332 337 332 331 338
359 355 352 348 346 337 329 332 333 333 332 331 331 331 329 325 321 318 322 317 309 303 309 319 326 331 332 325 329 338 342 328 322 318 314 313 321 332 337 333 331 329 331 337
351 351 349 349 346 344 336 333 334 332 333 338 332 323 318 317 318 316 315 313 314 320 320 326 336 332 327 328 336 349 347 329 325 323 318 324 335 341 340 341 342 336 340 347
346 350 349 348 349 343 340 340 339 335 335 335 332 325 321 320 321 320 308 295 306 324 334 335 332 329 334 342 358 4 355 345 340 338 337 343 346 344 345 345 347 348 358 1
346 347 347 346 341 335 337 343 341 336 331 325 321 320 318 313 314 317 318 321 322 332 339 333 334 341 350 360 11 11 359 356 354 351 351 355 353 352 348 349 354 360 3 358
344 344 337 334 340 346 342 337 335 331 324 317 315 314 315 317 319 317 308 316 333 335 339 336 345 352 358 5 12 12 5 3 359 0 4 2 4 1 357 0 7 10 8 2
335 333 334 342 346 338 328 327 330 334 337 333 330 330 325 312 305 313 322 331 335 339 342 344 352 356 1 7 14 12 2 0 7 15 15 12 5 3 3 9 11 9 6 2
333 333 332 328 320 320 322 326 329 331 334 333 335 336 332 326 320 322 332 337 338 340 346 347 347 350 358 5 13 9 2 357 3 11 16 15 13 12 7 5 5 2 359 357
329 331 335 339 342 339 333 330 328 327 328 324 321 323 329 335 340 342 340 340 341 347 350 351 353 357 1 7 12 11 8 10 12 11 10 12 13 13 8 3 1 3 2 1